Flag for U.S.A. Weather past 2 weeks in San Antonio, Texas, U.S.A.

Now
95 °F

Scattered clouds.


Feels Like: 103 °F
Forecast: 75 / 95 °F
Wind: 6 mph from East

Location: San Antonio International Airport

Current Time: Jul 23, 2014 at 3:48:47 PM

Latest Report: Jul 23, 2014 at 2:51 PM


Visibility: 10 mi

Pressure: 29.98 "Hg

Humidity: 46%

Dew point: 71 °F

Location of San AntonioLocation

Historic Weather in San Antonio — Graph

°F

San Antonio temperature yesterday

Maximum temperature yesterday: 94 °F (at 6:51 PM)
Minimum temperature yesterday: 77 °F (at 2:51 AM)
Average temperature yesterday: 82 °F

Past Weeks' High & Low Weather Summary

 TemperatureHumidityPressure
High98 °F (Jul 14, 4:51 PM)94% (Jul 18, 1:56 AM)30.17 "Hg (Jul 18, 1:56 AM)
Low73 °F (Jul 10, 4:51 AM)27% (Jul 14, 4:51 PM)29.72 "Hg (Jul 17, 7:51 PM)
Average83 °F67%29.96 "Hg
* Reported Jul 8 2:51 PM — Jul 23 2:51 PM, San Antonio, Weather by CustomWeather, © 2014

Note: Actual official high and low records may vary slightly from our data, if they occured in-between our weather recording intervals... More about our weather records

Advertising

San Antonio weather history for previous 24 hours

 ConditionsComfort  
Time TempWeatherWind HumidityBarometerVisibility
2:51 PM
Jul 23
95 °FScattered clouds.6 mph46%29.98 "Hg10 mi
1:51 PM93 °FPartly sunny.No wind47%30.00 "Hg10 mi
12:51 PM93 °FScattered clouds.No wind50%30.01 "Hg10 mi
11:51 AM89 °FPassing clouds.5 mph59%30.03 "Hg10 mi
10:51 AM86 °FScattered clouds.No wind67%30.04 "Hg10 mi
9:51 AM84 °FScattered clouds.3 mph74%30.04 "Hg9 mi
8:51 AM82 °FScattered clouds.No wind82%30.04 "Hg8 mi
7:51 AM79 °FScattered clouds.3 mph90%30.03 "Hg8 mi
6:51 AM78 °FPassing clouds.3 mph87%30.02 "Hg8 mi
5:51 AM78 °FPassing clouds.No wind90%30.01 "Hg10 mi
4:51 AM79 °FPassing clouds.5 mph88%29.99 "Hg10 mi
3:51 AM80 °FClear.6 mph81%29.99 "Hg10 mi
2:51 AM82 °FPassing clouds.3 mph79%29.99 "Hg10 mi
12:51 AM82 °FPassing clouds.7 mph74%29.99 "Hg10 mi
11:51 PM
Jul 22
84 °FPassing clouds.7 mph55%29.99 "Hg10 mi
10:51 PM87 °FPassing clouds.5 mph46%29.98 "Hg10 mi
9:51 PM88 °FPassing clouds.No wind46%29.96 "Hg10 mi
8:51 PM88 °FScattered clouds.5 mph46%29.94 "Hg10 mi
7:51 PM91 °FScattered clouds.9 mph41%29.93 "Hg10 mi
6:51 PM94 °FScattered clouds.6 mph38%29.92 "Hg10 mi
Weather by CustomWeather, © 2014

See weather overviewHow to use our weather pages